Location: Cypress Hills Dark-Sky Preserve - CHICO
(49.6176°N, 110.2634°W)
Time: 09:00:32
(UTC-06:00)

Amateur Radio Satellites - All Passes

Search period start: 05 July 2015 08:30
Search period end: 06 July 2015 08:30
Location: Cypress Hills Dark-Sky Preserve - CHICO, 49.6176°N, 110.2634°W

Satellite Date Start Highest point End Downlink Frequencies (MHz)
Time Altitude Azimuth
BEESAT 3 05 Jul 08:34:21 08:38:28 85° 313° (NW) 08:42:36 437.485
AIST 2 05 Jul 08:34:39 08:38:08 25° 117° (ESE) 08:41:42 435.215
O/OREOS (USA 219) 05 Jul 08:36:47 08:41:15 82° 297° (WNW) 08:45:46 437.305
AUBIESAT-1 05 Jul 08:42:38 08:45:58 74° 69° (ENE) 08:49:32 437.475
BEESAT 2 05 Jul 08:47:45 08:51:53 80° 309° (NW) 08:56:03 435.950
BRITE-PL 05 Jul 08:49:03 08:53:00 33° 94° (E) 08:56:49 437.365/2234.400
GONETS M04 05 Jul 08:57:20 09:05:12 40° 86° (E) 09:13:10
DOVE 4 05 Jul 09:00:48 09:03:30 17° 89° (E) 09:06:19 437.250
DANDE 05 Jul 09:01:19 09:08:12 86° 103° (ESE) 09:13:21 436.750
CUTE 1.7 + AOD 2 05 Jul 09:07:18 09:10:18 19° 90° (E) 09:13:25 437.475
CANX-2 05 Jul 09:10:34 09:13:54 22° 91° (E) 09:17:19 2200.000
UNISAT 6 05 Jul 09:17:03 09:17:58 11° 56° (NE) 09:19:03 437.425
M-CUBED/EXP-1 PRIME 05 Jul 09:18:12 09:21:18 34° 257° (WSW) 09:24:32 437.505
CUTE-I 05 Jul 09:24:23 09:28:39 24° 301° (WNW) 09:32:48 437.470
CUSAT 1 05 Jul 09:35:21 09:40:52 38° 287° (WNW) 09:45:05 437.405
Cosmos 2504 05 Jul 09:35:37 09:37:29 11° 315° (NW) 09:38:58 435.465 / 435.565
RS-15 05 Jul 09:38:35 09:49:37 50° 28° (NNE) 10:01:12 29.354- 29.394
ISS 05 Jul 09:39:19 09:42:30 53° 154° (SSE) 09:45:41 145.825
CINEMA 3 05 Jul 09:39:45 09:42:50 20° 91° (E) 09:46:03 145.822/145.860
HO-68 05 Jul 09:49:45 09:56:44 52° 100° (E) 10:03:42 435.675
QB50P1 05 Jul 09:52:39 09:53:35 11° 56° (NE) 09:54:42 145.935-145.965
SEEDS 05 Jul 09:53:30 09:57:34 43° 98° (E) 10:01:39 437.485
GOMX 1 05 Jul 09:57:54 10:02:10 83° 287° (WNW) 10:06:19 467.674
ANTELSAT 05 Jul 09:58:41 10:02:06 25° 64° (ENE) 10:05:37 437.575/2403.000
Cubesat XI-IV 05 Jul 09:59:53 10:02:44 14° 308° (NW) 10:05:23 437.490
VERMONT LUNAR 05 Jul 10:01:12 10:03:13 16° 178° (S) 10:05:13 437.305
AAUSAT CUBESAT 2 05 Jul 10:02:24 10:06:19 37° 96° (E) 10:10:15 437.432
NANOSAT C BR1 05 Jul 10:05:11 10:07:17 14° 59° (ENE) 10:09:32 145.865
TIGRISAT 05 Jul 10:10:18 10:14:00 30° 66° (ENE) 10:17:44 435.000
DUCHIFAT 1 05 Jul 10:11:26 10:13:51 15° 60° (ENE) 10:16:24 145.980
AIST 2 05 Jul 10:12:20 10:16:30 50° 316° (NW) 10:20:42 435.215
DELFI C3 05 Jul 10:12:34 10:15:07 16° 89° (E) 10:17:48 145.870
BEESAT 3 05 Jul 10:13:57 10:17:01 19° 331° (NNW) 10:20:02 437.485
POLYITAN 1 05 Jul 10:17:15 10:20:04 18° 61° (ENE) 10:23:00 437.675
O/OREOS (USA 219) 05 Jul 10:18:46 10:21:29 15° 319° (NW) 10:24:07 437.305
ZACube-1 05 Jul 10:20:29 10:23:16 17° 89° (E) 10:26:12 437.345
CUBEBUG 2 05 Jul 10:21:42 10:25:17 27° 94° (E) 10:28:58 437.445
BUGSAT 1 05 Jul 10:24:30 10:26:43 14° 59° (ENE) 10:29:03 437.445
Oscar 11 05 Jul 10:26:35 10:30:29 32° 95° (E) 10:34:24 145.826/435.025
BEESAT 2 05 Jul 10:27:34 10:30:36 19° 332° (NNW) 10:33:35 435.950
BRITE-PL 05 Jul 10:27:44 10:31:32 28° 295° (WNW) 10:35:07 437.365/2234.400
Cosmos 2499 05 Jul 10:27:56 10:33:36 28° 83° (E) 10:39:33 435.465 / 435.565
COMPASS 1 05 Jul 10:29:09 10:33:24 80° 101° (ESE) 10:37:39 437.405
PHONESAT 2.4 05 Jul 10:32:12 10:34:11 15° 167° (SSE) 10:36:13 2401.200-2431.200
HUMSAT D 05 Jul 10:33:37 10:34:07 10° 85° (E) 10:34:52 437.325/437.525
DOVE 4 05 Jul 10:37:37 10:41:42 52° 289° (WNW) 10:45:44 437.250
CUTE 1.7 + AOD 2 05 Jul 10:42:23 10:46:34 52° 289° (WNW) 10:50:44 437.475
QB50P2 05 Jul 10:45:41 10:49:26 32° 67° (ENE) 10:53:14 145.880/145.840
CANX-2 05 Jul 10:45:58 10:50:03 44° 290° (WNW) 10:54:08 2200.000
POPSAT HIP 1 05 Jul 10:46:11 10:49:55 31° 67° (ENE) 10:53:41 437.405
DANDE 05 Jul 10:47:28 10:51:44 18° 296° (WNW) 10:55:10 436.750
UNISAT 6 05 Jul 10:49:47 10:54:03 74° 74° (ENE) 10:58:19 437.425
GONETS M04 05 Jul 10:53:14 11:01:52 56° 288° (WNW) 11:10:26
FUNcube-1 05 Jul 10:55:28 10:59:22 36° 97° (E) 11:03:20 145.935
UWE-3 05 Jul 11:10:26 11:14:38 67° 102° (ESE) 11:18:54 435.000/436.395/437.385
ISS 05 Jul 11:15:41 11:18:54 61° 353° (N) 11:22:08 145.825
CINEMA 3 05 Jul 11:16:20 11:20:19 44° 290° (WNW) 11:24:20 145.822/145.860
ESTCUBE 1 05 Jul 11:23:11 11:24:39 12° 84° (E) 11:26:21 437.505/2401.250
QB50P1 05 Jul 11:24:31 11:28:45 74° 73° (ENE) 11:33:00 145.935-145.965
SEEDS 05 Jul 11:29:43 11:33:10 24° 296° (WNW) 11:36:32 437.485
ANTELSAT 05 Jul 11:34:42 11:38:45 40° 263° (W) 11:42:47 437.575/2403.000
VELOX 1 05 Jul 11:35:12 11:38:32 21° 91° (E) 11:41:56 145.980
HO-68 05 Jul 11:37:47 11:44:22 40° 300° (WNW) 11:50:53 435.675
VERMONT LUNAR 05 Jul 11:38:07 11:39:24 12° 195° (SSW) 11:40:40 437.305
GOMX 1 05 Jul 11:38:12 11:39:39 11° 304° (NW) 11:40:54 467.674
AAUSAT CUBESAT 2 05 Jul 11:38:15 11:41:48 26° 295° (WNW) 11:45:18 437.432
NANOSAT C BR1 05 Jul 11:38:20 11:42:35 83° 256° (WSW) 11:46:50 145.865
DX 1 05 Jul 11:40:25 11:44:30 38° 98° (E) 11:48:35 434.975-435.025
DUCHIFAT 1 05 Jul 11:44:58 11:49:11 73° 257° (WSW) 11:53:25 145.980
50 SAT 05 Jul 11:46:03 11:49:28 29° 95° (E) 11:52:55 437.505
DELFI C3 05 Jul 11:46:35 11:50:36 55° 288° (WNW) 11:54:34 145.870
TIGRISAT 05 Jul 11:46:53 11:50:44 32° 265° (W) 11:54:34 435.000
POLYITAN 1 05 Jul 11:51:25 11:55:36 59° 259° (W) 11:59:48 437.675
RS-15 05 Jul 11:51:30 12:03:08 78° 235° (SW) 12:15:12 29.354- 29.394
AIST 2 05 Jul 11:53:24 11:56:02 16° 338° (NNW) 11:58:37 435.215
ZACube-1 05 Jul 11:55:53 12:00:00 55° 288° (WNW) 12:04:11 437.345
BUGSAT 1 05 Jul 11:57:27 12:01:41 78° 257° (WSW) 12:05:53 437.445
CUBEBUG 2 05 Jul 11:58:14 12:02:03 34° 292° (WNW) 12:05:55 437.445
UKube-1 05 Jul 11:59:42 12:03:59 55° 101° (E) 12:08:13 .
Oscar 11 05 Jul 12:02:46 12:06:39 32° 293° (WNW) 12:10:29 145.826/435.025
COMPASS 1 05 Jul 12:06:14 12:08:33 14° 301° (WNW) 12:10:44 437.405
HUMSAT D 05 Jul 12:06:24 12:10:35 89° 100° (E) 12:14:47 437.325/437.525
PHONESAT 2.4 05 Jul 12:09:04 12:11:29 18° 184° (S) 12:13:55 2401.200-2431.200
Cosmos 2499 05 Jul 12:19:16 12:26:15 63° 285° (WNW) 12:33:26 435.465 / 435.565
QB50P2 05 Jul 12:21:34 12:25:21 30° 265° (W) 12:29:05 145.880/145.840
POPSAT HIP 1 05 Jul 12:21:59 12:25:47 31° 265° (W) 12:29:33 437.405
AISAT 05 Jul 12:22:00 12:26:23 60° 101° (E) 12:30:44 437.250
UNISAT 6 05 Jul 12:29:15 12:31:26 13° 273° (W) 12:33:26 437.425
YUBILEINY 05 Jul 12:29:28 12:33:52 15° 44° (NE) 12:38:42 435.215
FUNcube-1 05 Jul 12:32:02 12:35:36 27° 294° (WNW) 12:39:09 145.935
CUBEBUG 1 05 Jul 12:36:41 12:40:55 47° 99° (E) 12:45:08 437.445
TISAT 1 05 Jul 12:38:41 12:39:40 11° 85° (E) 12:40:52 437.305
UWE-3 05 Jul 12:48:06 12:50:46 16° 299° (WNW) 12:53:20 435.000/436.395/437.385
ISS 05 Jul 12:52:14 12:55:30 73° 14° (NNE) 12:58:44 145.825
Oscar 19 05 Jul 12:53:40 12:58:10 32° 64° (ENE) 13:02:44 437.125/150
GONETS M04 05 Jul 12:56:14 13:01:16 15° 315° (NW) 13:05:54
ESTCUBE 1 05 Jul 12:57:43 13:02:19 88° 104° (ESE) 13:06:51 437.505/2401.250
QB50P1 05 Jul 13:03:01 13:05:11 13° 273° (W) 13:07:11 145.935-145.965
Gurwin Techsat 1B 05 Jul 13:09:08 13:12:25 17° 55° (NE) 13:15:51 435.225
ITAMSAT 1 05 Jul 13:09:15 13:12:23 17° 55° (NE) 13:15:40 435.822/435.867
VELOX 1 05 Jul 13:11:06 13:15:23 49° 290° (WNW) 13:19:37 145.980
DX 1 05 Jul 13:16:55 13:20:38 27° 296° (WNW) 13:24:15 434.975-435.025
50 SAT 05 Jul 13:20:40 13:24:04 29° 293° (WNW) 13:27:27 437.505
HO-68 05 Jul 13:27:54 13:30:21 12° 323° (NW) 13:32:31 435.675
BEESAT 3 05 Jul 13:34:18 13:36:11 13° 18° (NNE) 13:38:08 437.485
SPROUT 05 Jul 13:34:34 13:38:50 59° 101° (E) 13:43:02 437.525
AIST 2 05 Jul 13:35:34 13:36:19 10° 2° (N) 13:37:05 435.215
UKube-1 05 Jul 13:36:35 13:39:47 20° 299° (WNW) 13:42:53 .
HUMSAT D 05 Jul 13:43:53 13:45:45 13° 302° (WNW) 13:47:28 437.325/437.525
PHONESAT 2.4 05 Jul 13:47:48 13:48:44 11° 200° (SSW) 13:49:37 2401.200-2431.200
BEESAT 2 05 Jul 13:47:58 13:50:00 13° 19° (NNE) 13:52:06 435.950
SWISSCUBE 05 Jul 13:48:06 13:50:07 13° 85° (E) 13:52:22 437.505
ITUPSAT 1 05 Jul 13:53:50 13:55:59 13° 85° (E) 13:58:21 437.325
AO-7 05 Jul 13:54:57 14:00:49 22° 42° (NE) 14:06:53 29.400- 29.500
AISAT 05 Jul 13:59:25 14:02:36 19° 299° (WNW) 14:05:39 437.250
RS-15 05 Jul 14:05:10 14:14:01 25° 258° (WSW) 14:22:34 29.354- 29.394
TISAT 1 05 Jul 14:11:56 14:16:09 87° 285° (WNW) 14:20:20 437.305
CUBEBUG 1 05 Jul 14:13:34 14:17:01 22° 297° (WNW) 14:20:22 437.445
Cosmos 2499 05 Jul 14:17:29 14:21:20 14° 312° (NW) 14:24:56 435.465 / 435.565
YUBILEINY 05 Jul 14:24:50 14:33:22 54° 71° (ENE) 14:41:57 435.215
ISS 05 Jul 14:28:46 14:31:45 34° 212° (SSW) 14:34:44 145.825
JAS-2 05 Jul 14:31:59 14:36:01 23° 57° (ENE) 14:40:23 435.910
Oscar 19 05 Jul 14:32:35 14:37:26 41° 262° (W) 14:42:18 437.125/150
HORYU 2 05 Jul 14:33:42 14:35:29 13° 56° (NE) 14:37:28 437.375
ESTCUBE 1 05 Jul 14:36:02 14:38:35 15° 303° (WNW) 14:40:59 437.505/2401.250
ITAMSAT 1 05 Jul 14:45:58 14:51:12 86° 77° (ENE) 14:56:30 435.822/435.867
Gurwin Techsat 1B 05 Jul 14:46:24 14:51:43 88° 80° (E) 14:57:07 435.225
Cosmos 2491 05 Jul 14:52:49 15:00:17 34° 83° (E) 15:07:55 435.465 / 435.565
BEESAT 05 Jul 15:08:09 15:12:55 60° 101° (ESE) 15:17:40 436.000
BEESAT 3 05 Jul 15:11:24 15:15:14 37° 41° (NE) 15:19:03 437.485
SPROUT 05 Jul 15:11:31 15:14:32 18° 299° (WNW) 15:17:26 437.525
AIST 2 05 Jul 15:13:37 15:16:32 18° 26° (NNE) 15:19:28 435.215
AIST 1 05 Jul 15:22:47 15:26:01 21° 87° (E) 15:29:21
SWISSCUBE 05 Jul 15:23:55 15:28:46 89° 95° (E) 15:33:35 437.505
Cosmos 2504 05 Jul 15:24:48 15:29:12 17° 53° (NE) 15:34:05 435.465 / 435.565
BEESAT 2 05 Jul 15:25:14 15:29:09 40° 41° (NE) 15:33:01 435.950
O/OREOS (USA 219) 05 Jul 15:25:29 15:27:10 12° 36° (NE) 15:28:59 437.305
ITUPSAT 1 05 Jul 15:29:48 15:34:40 89° 299° (WNW) 15:39:30 437.325
PCSat 05 Jul 15:33:10 15:37:21 24° 110° (ESE) 15:41:41 145.827
AO-7 05 Jul 15:44:04 15:52:19 69° 65° (ENE) 16:00:39 29.400- 29.500
TISAT 1 05 Jul 15:49:31 15:51:18 12° 303° (WNW) 15:52:57 437.305
KKS-1 05 Jul 16:03:36 16:07:48 41° 98° (E) 16:12:00 437.445
HORYU 2 05 Jul 16:07:03 16:11:28 81° 74° (ENE) 16:15:55 437.375
JAS-2 05 Jul 16:15:36 16:20:44 62° 259° (W) 16:26:15 435.910
YUBILEINY 05 Jul 16:22:02 16:30:05 42° 273° (W) 16:38:03 435.215
ITAMSAT 1 05 Jul 16:28:20 16:31:30 15° 274° (W) 16:34:28 435.822/435.867
Gurwin Techsat 1B 05 Jul 16:29:22 16:32:33 15° 275° (W) 16:35:31 435.225
Cubesat XI-IV 05 Jul 16:30:27 16:31:01 10° 48° (NE) 16:31:50 437.490
MOZHAYETS 4 05 Jul 16:31:35 16:32:49 11° 83° (E) 16:34:18
BEESAT 05 Jul 16:46:43 16:50:24 22° 300° (WNW) 16:53:58 436.000
Cosmos 2491 05 Jul 16:47:52 16:56:40 67° 285° (WNW) 17:05:27 435.465 / 435.565
BEESAT 3 05 Jul 16:49:28 16:53:09 33° 241° (WSW) 16:56:45 437.485
AIST 2 05 Jul 16:51:39 16:55:53 67° 47° (NE) 17:00:02 435.215
STARS 05 Jul 16:52:31 16:56:56 78° 104° (ESE) 17:01:19 437.465
AIST 1 05 Jul 16:59:07 17:03:23 46° 285° (WNW) 17:07:40
SWISSCUBE 05 Jul 17:03:06 17:06:01 16° 304° (WNW) 17:08:47 437.505
O/OREOS (USA 219) 05 Jul 17:03:13 17:07:41 56° 59° (ENE) 17:12:09 437.305
BEESAT 2 05 Jul 17:03:29 17:07:07 30° 241° (WSW) 17:10:40 435.950
SO-50 05 Jul 17:06:46 17:11:03 35° 119° (ESE) 17:15:30 436.795
ITUPSAT 1 05 Jul 17:09:04 17:11:56 16° 304° (NW) 17:14:39 437.325
PCSat 05 Jul 17:14:58 17:20:22 68° 309° (NW) 17:25:49 145.827
Cosmos 2504 05 Jul 17:15:36 17:23:00 69° 77° (ENE) 17:30:58 435.465 / 435.565
CUTE-I 05 Jul 17:31:09 17:35:36 28° 61° (ENE) 17:40:09 437.470
AO-7 05 Jul 17:38:22 17:45:48 33° 267° (W) 17:53:08 29.400- 29.500
KKS-1 05 Jul 17:40:33 17:44:17 26° 296° (WNW) 17:47:55 437.445
HORYU 2 05 Jul 17:46:39 17:48:47 13° 274° (W) 17:50:43 437.375
Cubesat XI-IV 05 Jul 18:04:51 18:10:00 49° 68° (ENE) 18:15:13 437.490
MOZHAYETS 4 05 Jul 18:06:12 18:10:54 82° 104° (ESE) 18:15:33
CUSAT 1 05 Jul 18:26:32 18:28:03 14° 64° (ENE) 18:29:36 437.405
BRITE-PL 05 Jul 18:28:30 18:30:33 13° 56° (NE) 18:32:46 437.365/2234.400
STARS 05 Jul 18:30:15 18:32:52 15° 302° (WNW) 18:35:21 437.465
AIST 2 05 Jul 18:31:07 18:34:02 18° 246° (WSW) 18:36:49 435.215
CUBESAT XI-V 05 Jul 18:37:16 18:40:30 19° 88° (E) 18:43:52 437.345
HO-68 05 Jul 18:38:58 18:43:06 17° 44° (NE) 18:47:27 435.675
O/OREOS (USA 219) 05 Jul 18:43:24 18:46:45 20° 257° (WSW) 18:50:00 437.305
SO-50 05 Jul 18:46:51 18:51:31 47° 319° (NW) 18:56:18 436.795
Cosmos 2491 05 Jul 18:49:44 18:55:42 19° 311° (NW) 19:01:20 435.465 / 435.565
PCSat 05 Jul 19:00:45 19:04:49 21° 332° (NNW) 19:08:50 145.827
GONETS M04 05 Jul 19:01:23 19:08:19 26° 56° (ENE) 19:15:26
Cosmos 2504 05 Jul 19:08:31 19:14:45 29° 276° (W) 19:21:07 435.465 / 435.565
CUTE-I 05 Jul 19:10:09 19:15:25 54° 260° (W) 19:20:43 437.470
GOMX 1 05 Jul 19:32:54 19:36:53 25° 64° (ENE) 19:40:43 467.674
DANDE 05 Jul 19:39:06 19:42:06 88° 76° (ENE) 19:44:43 436.750
MOZHAYETS 4 05 Jul 19:44:42 19:47:34 16° 302° (WNW) 19:50:18
Cubesat XI-IV 05 Jul 19:45:42 19:50:22 29° 267° (W) 19:54:59 437.490
COMPASS 1 05 Jul 19:51:33 19:53:24 13° 58° (ENE) 19:55:24 437.405
PRISM 05 Jul 19:52:10 19:55:50 28° 95° (E) 19:59:29 437.425
BRITE-PL 05 Jul 20:03:03 20:08:23 68° 73° (ENE) 20:13:22 437.365/2234.400
STRAND 1 05 Jul 20:03:47 20:08:39 41° 97° (E) 20:13:31 437.568
CUTE 1.7 + AOD 2 05 Jul 20:04:23 20:07:44 24° 64° (ENE) 20:11:10 437.475
CANX-2 05 Jul 20:07:43 20:11:16 28° 66° (ENE) 20:14:55 2200.000
CUSAT 1 05 Jul 20:08:43 20:10:41 18° 267° (W) 20:12:33 437.405
DOVE 4 05 Jul 20:09:58 20:14:10 32° 67° (ENE) 20:18:11 437.250
Cosmos 2499 05 Jul 20:11:48 20:16:08 16° 50° (NE) 20:20:58 435.465 / 435.565
CUBESAT XI-V 05 Jul 20:13:45 20:18:24 61° 288° (WNW) 20:23:00 437.345
HO-68 05 Jul 20:22:36 20:29:34 60° 66° (ENE) 20:36:37 435.675
SO-50 05 Jul 20:29:52 20:33:14 18° 342° (NNW) 20:36:36 436.795
UWE-3 05 Jul 20:38:18 20:40:02 13° 58° (ENE) 20:41:55 435.000/436.395/437.385
CINEMA 3 05 Jul 20:45:31 20:49:27 33° 68° (ENE) 20:53:18 145.822/145.860
PCSat 05 Jul 20:48:10 20:50:23 12° 358° (N) 20:52:36 145.827
SEEDS 05 Jul 20:49:33 20:53:37 52° 71° (ENE) 20:57:44 437.485
AAUSAT CUBESAT 2 05 Jul 20:57:11 21:01:06 43° 70° (ENE) 21:05:06 437.432
GONETS M04 05 Jul 20:57:45 21:06:31 87° 260° (W) 21:15:12
DELFI C3 05 Jul 21:04:07 21:06:55 19° 63° (ENE) 21:09:50 145.870
GOMX 1 05 Jul 21:09:53 21:14:48 51° 261° (W) 21:19:25 467.674
ZACube-1 05 Jul 21:20:43 21:24:03 24° 65° (ENE) 21:27:26 437.345
CUBEBUG 2 05 Jul 21:24:10 21:28:05 38° 69° (ENE) 21:32:00 437.445
COMPASS 1 05 Jul 21:24:19 21:28:28 87° 251° (WSW) 21:32:42 437.405
Oscar 11 05 Jul 21:25:25 21:29:28 42° 69° (ENE) 21:33:34 145.826/435.025
UKube-1 05 Jul 21:25:34 21:27:19 13° 56° (NE) 21:29:15 .
PRISM 05 Jul 21:27:29 21:31:18 33° 293° (WNW) 21:35:04 437.425
HUMSAT D 05 Jul 21:28:56 21:31:03 14° 60° (ENE) 21:33:20 437.325/437.525
CUTE 1.7 + AOD 2 05 Jul 21:39:27 21:43:27 41° 262° (W) 21:47:30 437.475
STRAND 1 05 Jul 21:43:11 21:47:47 33° 296° (WNW) 21:52:18 437.568
CANX-2 05 Jul 21:43:14 21:47:07 35° 264° (W) 21:51:01 2200.000
BRITE-PL 05 Jul 21:43:24 21:47:20 20° 271° (W) 21:50:58 437.365/2234.400
DOVE 4 05 Jul 21:47:34 21:51:56 34° 264° (W) 21:56:03 437.250
AISAT 05 Jul 21:49:57 21:52:13 14° 57° (ENE) 21:54:37 437.250
AUBIESAT-1 05 Jul 21:52:34 21:56:19 30° 102° (ESE) 22:00:19 437.475
CUBESAT XI-V 05 Jul 21:54:06 21:54:58 10° 307° (NW) 21:55:37 437.345
FUNcube-1 05 Jul 21:55:23 21:59:25 49° 71° (ENE) 22:03:26 145.935
Cosmos 2499 05 Jul 22:03:28 22:11:09 62° 75° (ENE) 22:19:28 435.465 / 435.565
CUBEBUG 1 05 Jul 22:04:25 22:05:29 11° 55° (NE) 22:06:44 437.445
HO-68 05 Jul 22:11:23 22:17:46 33° 267° (W) 22:24:04 435.675
UWE-3 05 Jul 22:11:47 22:16:01 88° 256° (WSW) 22:20:12 435.000/436.395/437.385
SO-50 05 Jul 22:12:52 22:15:37 15° 6° (N) 22:18:26 436.795
CINEMA 3 05 Jul 22:22:46 22:26:42 30° 265° (W) 22:30:29 145.822/145.860
ESTCUBE 1 05 Jul 22:26:16 22:29:30 20° 61° (ENE) 22:32:51 437.505/2401.250
SEEDS 05 Jul 22:26:47 22:29:45 18° 271° (W) 22:32:38 437.485
M-CUBED/EXP-1 PRIME 05 Jul 22:28:02 22:32:13 76° 108° (ESE) 22:36:44 437.505
PCSat 05 Jul 22:32:23 22:36:03 18° 24° (NNE) 22:39:47 145.827
AAUSAT CUBESAT 2 05 Jul 22:33:43 22:36:56 21° 269° (W) 22:40:06 437.432
50 SAT 05 Jul 22:34:21 22:37:42 30° 67° (ENE) 22:41:07 437.505
VELOX 1 05 Jul 22:36:41 22:40:40 33° 66° (ENE) 22:44:41 145.980
DELFI C3 05 Jul 22:37:47 22:41:42 50° 261° (W) 22:45:39 145.870
UNISAT 6 05 Jul 22:39:15 22:40:31 11° 85° (E) 22:42:01 437.425
DX 1 05 Jul 22:39:55 22:44:14 59° 71° (ENE) 22:48:34 434.975-435.025
GONETS M04 05 Jul 22:55:58 23:02:15 22° 283° (WNW) 23:08:10
ZACube-1 05 Jul 22:56:18 23:00:15 39° 263° (W) 23:04:11 437.345
UKube-1 05 Jul 22:58:27 23:02:48 83° 75° (ENE) 23:07:11 .
SPROUT 05 Jul 23:00:09 23:01:34 12° 57° (ENE) 23:03:09 437.525
CUBEBUG 2 05 Jul 23:01:27 23:04:57 24° 267° (W) 23:08:21 437.445
HUMSAT D 05 Jul 23:02:13 23:06:19 74° 257° (WSW) 23:10:25 437.325/437.525
Oscar 11 05 Jul 23:02:21 23:05:51 23° 268° (W) 23:09:17 145.826/435.025
NANOSAT C BR1 05 Jul 23:20:47 23:22:18 12° 86° (E) 23:24:00 145.865
ANTELSAT 05 Jul 23:21:52 23:25:42 29° 95° (E) 23:29:37 437.575/2403.000
AISAT 05 Jul 23:23:43 23:28:12 89° 247° (WSW) 23:32:42 437.250
DUCHIFAT 1 05 Jul 23:26:46 23:28:47 13° 87° (E) 23:30:58 145.980
AUBIESAT-1 05 Jul 23:27:15 23:31:04 35° 298° (WNW) 23:35:06 437.475
FUNcube-1 05 Jul 23:33:02 23:36:03 19° 270° (W) 23:38:59 145.935
POLYITAN 1 05 Jul 23:33:22 23:36:02 17° 89° (E) 23:38:48 437.675
TIGRISAT 05 Jul 23:33:24 23:37:25 35° 96° (E) 23:41:32 435.000
TISAT 1 05 Jul 23:34:15 23:36:52 17° 60° (ENE) 23:39:36 437.305
CUBEBUG 1 05 Jul 23:36:41 23:41:05 69° 73° (ENE) 23:45:31 437.445
BUGSAT 1 05 Jul 23:37:40 23:38:42 11° 85° (E) 23:39:57 437.445
UWE-3 05 Jul 23:52:57 23:53:18 10° 276° (W) 23:53:23 435.000/436.395/437.385
SO-50 05 Jul 23:53:32 23:57:46 27° 30° (NNE) 00:02:01 436.795
Cosmos 2499 05 Jul 23:57:09 00:03:59 34° 274° (W) 00:11:06 435.465 / 435.565
ESTCUBE 1 06 Jul 00:01:30 00:06:00 61° 259° (W) 00:10:32 437.505/2401.250
QB50P2 06 Jul 00:02:03 00:05:50 31° 95° (E) 00:09:37 145.880/145.840
POPSAT HIP 1 06 Jul 00:02:23 00:06:07 30° 95° (E) 00:09:52 437.405
M-CUBED/EXP-1 PRIME 06 Jul 00:03:57 00:06:40 17° 305° (NW) 00:09:24 437.505
50 SAT 06 Jul 00:09:04 00:12:21 26° 266° (W) 00:15:37 437.505
VELOX 1 06 Jul 00:13:10 00:17:13 32° 264° (W) 00:21:14 145.980
UNISAT 6 06 Jul 00:13:38 00:18:02 89° 97° (E) 00:22:31 437.425
PCSat 06 Jul 00:15:23 00:20:44 53° 47° (NE) 00:26:03 145.827
DX 1 06 Jul 00:17:53 00:20:54 17° 270° (W) 00:23:47 434.975-435.025
SPROUT 06 Jul 00:32:40 00:36:58 79° 74° (ENE) 00:41:18 437.525
UKube-1 06 Jul 00:37:40 00:39:36 12° 274° (W) 00:41:21 .
QB50P1 06 Jul 00:40:58 00:45:12 76° 103° (ESE) 00:49:24 145.935-145.965
BEESAT 06 Jul 00:43:07 00:46:16 18° 58° (ENE) 00:49:34 436.000
NANOSAT C BR1 06 Jul 00:54:33 00:58:47 81° 284° (WNW) 01:02:59 145.865
Cosmos 2491 06 Jul 00:56:35 01:02:59 22° 53° (NE) 01:09:37 435.465 / 435.565
SWISSCUBE 06 Jul 00:58:06 01:01:58 25° 62° (ENE) 01:05:55 437.505
ANTELSAT 06 Jul 00:58:32 01:02:33 35° 292° (WNW) 01:06:35 437.575/2403.000
DUCHIFAT 1 06 Jul 01:00:57 01:05:09 71° 287° (WNW) 01:09:19 145.980
AISAT 06 Jul 01:03:53 01:05:32 12° 275° (W) 01:06:57 437.250
ITUPSAT 1 06 Jul 01:04:10 01:08:04 26° 62° (ENE) 01:12:05 437.325
TISAT 1 06 Jul 01:07:59 01:12:12 67° 257° (WSW) 01:16:27 437.305
POLYITAN 1 06 Jul 01:08:11 01:12:21 58° 288° (WNW) 01:16:29 437.675
TIGRISAT 06 Jul 01:10:19 01:14:07 29° 294° (WNW) 01:17:54 435.000
BUGSAT 1 06 Jul 01:10:45 01:14:51 82° 286° (WNW) 01:18:53 437.445
CUBEBUG 1 06 Jul 01:15:16 01:17:59 15° 272° (W) 01:20:32 437.445
KKS-1 06 Jul 01:33:40 01:34:17 10° 54° (NE) 01:35:06 437.445
SO-50 06 Jul 01:33:52 01:38:52 81° 234° (SW) 01:43:47 436.795
QB50P2 06 Jul 01:37:58 01:41:42 30° 294° (WNW) 01:45:23 145.880/145.840
POPSAT HIP 1 06 Jul 01:38:15 01:41:59 31° 294° (WNW) 01:45:40 437.405
YUBILEINY 06 Jul 01:43:01 01:44:36 11° 68° (ENE) 01:46:50 435.215
UNISAT 6 06 Jul 01:52:01 01:54:15 14° 302° (WNW) 01:56:22 437.425
PCSat 06 Jul 01:59:11 02:03:57 31° 247° (WSW) 02:08:38 145.827
SPROUT 06 Jul 02:11:38 02:13:41 13° 274° (W) 02:15:33 437.525
QB50P1 06 Jul 02:18:08 02:20:33 15° 301° (WNW) 02:22:51 145.935-145.965
BEESAT 06 Jul 02:18:50 02:23:37 75° 257° (WSW) 02:28:27 436.000
STARS 06 Jul 02:19:07 02:21:52 17° 59° (ENE) 02:24:45 437.465
RS-15 06 Jul 02:20:39 02:30:35 45° 112° (ESE) 02:41:00 29.354- 29.394
NANOSAT C BR1 06 Jul 02:32:28 02:33:58 11° 303° (WNW) 02:35:18 145.865
SWISSCUBE 06 Jul 02:34:56 02:39:35 50° 260° (W) 02:44:17 437.505
Oscar 19 06 Jul 02:39:13 02:44:13 50° 99° (E) 02:49:12 437.125/150
DUCHIFAT 1 06 Jul 02:39:32 02:40:14 10° 304° (NW) 02:40:45 145.980
ITUPSAT 1 06 Jul 02:41:05 02:45:45 48° 261° (W) 02:50:26 437.325
BUGSAT 1 06 Jul 02:48:26 02:49:40 11° 303° (WNW) 02:50:43 437.445
Cosmos 2491 06 Jul 02:52:45 03:01:35 80° 79° (E) 03:10:19 435.465 / 435.565
ITAMSAT 1 06 Jul 02:55:06 02:59:04 22° 90° (E) 03:03:08 435.822/435.867
Gurwin Techsat 1B 06 Jul 02:58:39 03:03:00 25° 91° (E) 03:07:24 435.225
AIST 1 06 Jul 03:01:32 03:05:55 69° 78° (ENE) 03:10:14
KKS-1 06 Jul 03:05:43 03:10:08 65° 72° (ENE) 03:14:33 437.445
SO-50 06 Jul 03:16:03 03:18:44 14° 250° (WSW) 03:21:12 436.795
JAS-2 06 Jul 03:19:15 03:23:20 17° 85° (E) 03:28:00 435.910
YUBILEINY 06 Jul 03:31:13 03:39:27 52° 90° (E) 03:47:49 435.215
MOZHAYETS 4 06 Jul 03:36:56 03:40:05 19° 60° (ENE) 03:43:21
AO-7 06 Jul 03:42:34 03:46:58 16° 82° (E) 03:51:50 29.400- 29.500
STARS 06 Jul 03:53:29 03:57:52 70° 257° (WSW) 04:02:16 437.465
HORYU 2 06 Jul 03:56:00 03:57:24 11° 85° (E) 03:59:02 437.375
BEESAT 06 Jul 04:01:34 04:02:26 10° 277° (W) 04:03:01 436.000
Oscar 19 06 Jul 04:19:01 04:23:22 28° 298° (WNW) 04:27:38 437.125/150
RS-15 06 Jul 04:31:34 04:42:32 70° 318° (NW) 04:53:59 29.354- 29.394
ITAMSAT 1 06 Jul 04:33:52 04:39:03 61° 290° (WNW) 04:44:10 435.822/435.867
Gurwin Techsat 1B 06 Jul 04:38:08 04:43:20 54° 291° (WNW) 04:48:30 435.225
AIST 1 06 Jul 04:40:41 04:43:03 14° 276° (W) 04:45:14
KKS-1 06 Jul 04:44:21 04:47:15 16° 271° (W) 04:50:01 437.445
Cosmos 2491 06 Jul 04:50:38 04:57:37 27° 280° (W) 05:04:18 435.465 / 435.565
JAS-2 06 Jul 05:02:48 05:09:23 79° 105° (ESE) 05:16:45 435.910
MOZHAYETS 4 06 Jul 05:12:19 05:16:53 66° 259° (WSW) 05:21:30
YUBILEINY 06 Jul 05:28:20 05:36:34 44° 293° (WNW) 05:44:46 435.215
HORYU 2 06 Jul 05:30:18 05:34:48 89° 104° (ESE) 05:39:17 437.375
AO-7 06 Jul 05:33:16 05:41:38 68° 105° (ESE) 05:49:57 29.400- 29.500
CUBESAT XI-V 06 Jul 05:44:33 05:48:37 30° 65° (ENE) 05:52:47 437.345
STRAND 1 06 Jul 05:47:17 05:50:28 17° 56° (NE) 05:53:48 437.568
Cosmos 2504 06 Jul 05:52:02 05:58:25 43° 89° (E) 06:04:57 435.465 / 435.565
ITAMSAT 1 06 Jul 06:15:31 06:17:37 12° 309° (NW) 06:19:31 435.822/435.867
Cubesat XI-IV 06 Jul 06:19:17 06:21:44 13° 84° (E) 06:24:27 437.490
Gurwin Techsat 1B 06 Jul 06:20:42 06:22:18 11° 310° (NW) 06:23:39 435.225
PRISM 06 Jul 06:46:08 06:50:00 38° 68° (ENE) 06:53:56 437.425
RS-15 06 Jul 06:46:58 06:57:17 39° 349° (N) 07:08:00 29.354- 29.394
BEESAT 3 06 Jul 06:47:09 06:49:26 15° 113° (ESE) 06:51:51 437.485
JAS-2 06 Jul 06:48:46 06:54:01 26° 301° (WNW) 06:59:34 435.910
BEESAT 2 06 Jul 07:01:45 07:04:19 17° 114° (ESE) 07:07:02 435.950
HORYU 2 06 Jul 07:08:25 07:10:51 14° 303° (WNW) 07:13:08 437.375
DANDE 06 Jul 07:12:39 07:15:44 15° 89° (E) 07:18:44 436.750
O/OREOS (USA 219) 06 Jul 07:20:28 07:24:10 27° 105° (ESE) 07:27:58 437.305
CUBESAT XI-V 06 Jul 07:21:33 07:25:59 39° 264° (W) 07:30:24 437.345
CUTE-I 06 Jul 07:22:41 07:27:49 44° 98° (E) 07:32:56 437.470
STRAND 1 06 Jul 07:23:52 07:29:02 90° 230° (SW) 07:34:15 437.568
AO-7 06 Jul 07:26:33 07:34:03 38° 306° (NW) 07:41:26 29.400- 29.500
YUBILEINY 06 Jul 07:33:24 07:36:34 12° 321° (NW) 07:39:17 435.215
CUSAT 1 06 Jul 07:36:09 07:40:51 26° 95° (E) 07:44:43 437.405
Cosmos 2504 06 Jul 07:44:13 07:50:42 41° 291° (WNW) 07:57:15 435.465 / 435.565
M-CUBED/EXP-1 PRIME 06 Jul 07:47:21 07:49:56 21° 57° (ENE) 07:52:40 437.505
Cubesat XI-IV 06 Jul 07:57:23 08:02:48 82° 103° (ESE) 08:08:12 437.490
BRITE-PL 06 Jul 08:05:37 08:07:25 13° 84° (E) 08:09:25 437.365/2234.400
GONETS M04 06 Jul 08:10:09 08:16:27 24° 78° (ENE) 08:23:01
PRISM 06 Jul 08:22:03 08:25:34 25° 266° (W) 08:29:03 437.425
